Location: Holzerode
(51.5953°N, 10.0653°E)
Time: 00:29:18
(UTC+00:00)

Daily predictions for brighter satellites

Satellite Brightness Start Highest point End
(mag) Time Altitude Azimuth Time Altitude Azimuth Time Altitude Azimuth
STARLINK-1247 2.7 00:00:33 10° WNW 00:03:42 86° SSW 00:06:50 10° ESE
STARLINK-1227 2.7 00:01:02 10° WNW 00:04:09 85° SSW 00:07:15 10° ESE
ATLAS CENTAUR R/B 1.8 00:02:18 10° NW 00:04:24 50° NNE 00:08:08 10° ESE
STARLINK-1226 2.7 00:01:52 10° WNW 00:05:00 85° SSW 00:08:08 10° ESE
STARLINK-1215 2.7 00:02:49 10° WNW 00:05:57 84° SSW 00:09:04 10° ESE
STARLINK-1225 3.7 00:02:08 10° W 00:06:17 76° N 00:10:27 10° ENE
STARLINK-1217 2.7 00:04:36 10° WNW 00:07:43 83° SSW 00:10:50 10° ESE
Nadezhda 2 Rocket 4.5 00:04:33 25° S 00:08:21 77° E 00:14:28 10° NNE
STARLINK-1229 2.7 00:05:31 10° WNW 00:08:38 82° SSW 00:11:46 10° ESE
STARLINK-1271 3.7 00:04:58 10° WNW 00:09:08 77° N 00:13:18 10° E
STARLINK-1270 2.7 00:06:22 10° WNW 00:09:30 81° SSW 00:12:38 10° ESE
Cosmos 1726 3.6 00:06:54 10° NW 00:09:55 24° W 00:10:54 21° WSW
GEOS 3 Rocket 3.7 00:07:38 21° SSE 00:11:04 57° SW 00:16:18 10° NW
STARLINK-1230 3.8 00:07:07 10° W 00:11:16 75° N 00:15:26 10° E
Cosmos 2058 Rocket 3.1 00:06:51 10° N 00:11:16 81° E 00:13:46 26° SSE
STARLINK-1189 2.7 00:08:13 10° WNW 00:11:21 80° SSW 00:14:28 10° ESE
STARLINK-1188 2.7 00:09:06 10° WNW 00:12:14 79° SSW 00:15:21 10° ESE
Meteor 1-29 2.9 00:08:59 10° NNE 00:12:24 79° ESE 00:13:32 39° S
STARLINK-1235 2.7 00:09:48 10° WNW 00:12:53 68° SSW 00:15:58 10° ESE
STARLINK-1187 2.7 00:10:13 10° WNW 00:13:18 73° SSW 00:16:24 10° ESE
Cosmos 2228 3.3 00:09:36 10° NNW 00:13:46 53° W 00:15:32 30° SSW
STARLINK-1154 3.7 00:09:57 10° WNW 00:14:07 79° N 00:18:17 10° E
STARLINK-1191 2.7 00:11:34 10° WNW 00:14:41 77° SSW 00:17:47 10° ESE
SJ 16-02 3.5 00:11:14 10° N 00:14:59 26° NE 00:18:43 10° ESE
COSMOS 2455 3.0 00:11:40 25° SSW 00:15:08 61° ESE 00:21:04 10° NE
STARLINK-1221 2.7 00:12:27 10° WNW 00:15:33 76° SSW 00:18:39 10° ESE
STARLINK-1243 3.8 00:12:06 10° W 00:16:15 74° N 00:20:25 10° E
STARLINK-1222 2.7 00:13:20 10° WNW 00:16:27 75° SSW 00:19:33 10° ESE
STARLINK-1214 2.7 00:14:15 10° WNW 00:17:21 75° SSW 00:20:27 10° ESE
Cosmos 1953 4.1 00:15:11 10° NW 00:18:07 20° W 00:19:26 17° WSW
STARLINK-1197 3.7 00:14:57 10° WNW 00:19:06 81° NNE 00:23:16 10° E
Cosmos 1340 Rocket 4.3 00:16:33 10° NW 00:19:51 24° W 00:21:08 21° WSW
SL-14 R/B 3.6 00:18:39 28° SSE 00:20:27 57° E 00:24:16 10° NNE
STARLINK-1236 3.8 00:17:06 10° W 00:21:15 73° N 00:25:24 10° E
IRAS Rocket 4.2 00:17:53 22° S 00:21:37 75° WSW 00:27:13 10° NNW
Cosmos 1300 2.7 00:19:13 10° N 00:23:04 79° E 00:25:03 27° SSE
STARLINK-1198 3.6 00:19:54 10° WNW 00:24:04 82° NNE 00:28:13 10° E
Okean 1-7 Rocket 3.6 00:22:03 27° S 00:24:25 77° E 00:28:57 10° NNE
Cosmos 1174 3.6 00:23:33 37° S 00:24:31 53° ESE 00:28:09 10° NE
Cosmos 921 Rocket 3.9 00:23:34 22° SSE 00:25:46 38° ESE 00:29:47 10° NE
BREEZE M DEB (TANK) 2.7 00:26:49 34° SE 00:26:49 34° SE 00:29:01 10° ESE
COSMOS 2487 3.4 00:23:40 10° NW 00:26:44 30° WSW 00:27:18 28° WSW
STARLINK-1199 3.6 00:24:55 10° WNW 00:29:05 85° NNE 00:33:15 10° ESE
STARLINK-1269 3.8 00:27:03 10° W 00:31:12 72° N 00:35:22 10° E
Cosmos 2219 3.7 00:26:13 10° NNW 00:31:53 62° NE 00:37:28 10° SE
Cosmos 1626 Rocket 4.4 00:29:36 19° SSE 00:32:20 41° E 00:36:26 10° NNE
STARLINK-1210 3.6 00:29:53 10° WNW 00:34:03 87° NNE 00:38:12 10° ESE
STARLINK-1200 3.9 00:32:04 10° W 00:36:13 71° N 00:40:22 10° E
Cosmos 1626 2.0 00:34:31 31° S 00:36:13 89° E 00:39:58 10° N
STARLINK-60 3.6 00:36:27 34° S 00:36:53 35° SSE 00:39:51 10° E
Cosmos 1656 Rocket 4.1 00:33:51 18° SW 00:38:01 57° NW 00:43:33 10° NNE
STARLINK-1219 3.6 00:34:52 10° WNW 00:39:02 89° NNE 00:43:11 10° ESE
Nadezhda 1 Rocket 4.0 00:34:18 10° N 00:40:30 82° E 00:45:52 15° SSE
STARLINK-1192 3.9 00:37:04 10° W 00:41:13 71° N 00:45:22 10° E
FALCON 9 R/B 4.0 00:38:25 20° SSW 00:42:18 29° SSE 00:58:05 10° ESE
STARLINK-1211 3.5 00:39:50 10° WNW 00:44:00 88° SSW 00:48:09 10° ESE
STARLINK-1244 3.9 00:42:02 10° W 00:46:11 71° N 00:50:20 10° E
Cosmos 2297 Rocket 2.6 00:41:54 10° NNW 00:47:34 65° NE 00:53:10 10° SE
MOZ.5/SAFIR/RUBIN 5/SL-8 3.7 00:44:15 19° S 00:47:37 82° WSW 00:52:17 10° NNW
UNK 3.8 00:44:00 15° SSE 00:47:53 79° ENE 00:52:30 10° NNW
ERBS 4.3 00:45:57 10° WNW 00:48:59 31° N 00:52:00 10° ENE
STARLINK-1245 3.5 00:44:49 10° WNW 00:48:59 85° SSW 00:53:09 10° ESE
Cosmos 1812 Rocket 4.0 00:46:00 10° N 00:50:29 63° ENE 00:54:30 12° SSE
CZ-4B R/B 4.5 00:46:08 10° NNE 00:50:59 41° E 00:55:16 13° SSE
STARLINK-1138 3.9 00:47:01 10° W 00:51:11 71° N 00:55:19 10° E
SL-4 R/B 2.7 00:49:12 23° SW 00:51:56 48° SSE 00:56:28 10° E
STARLINK-1203 3.9 00:49:37 10° W 00:53:50 72° N 00:58:02 10° E
STARLINK-1233 3.5 00:49:48 10° WNW 00:53:58 82° SSW 00:58:06 10° ESE
Cosmos 1437 2.5 00:52:48 32° S 00:54:02 82° ESE 00:57:04 10° NNE
Cosmos 1674 4.3 00:53:21 16° WSW 00:55:19 24° WNW 00:58:25 10° NNW
SL-19 R/B 4.3 00:50:46 10° NNE 00:56:05 72° WNW 01:00:04 20° SSW
STARLINK-1143 3.9 00:52:01 10° W 00:56:10 72° N 01:00:19 10° E
STARLINK-1204 3.5 00:54:47 10° WNW 00:58:56 79° SSW 01:03:05 10° ESE
Timation 2 Rocket 4.2 00:53:09 10° NW 00:59:20 52° WSW 01:04:30 14° S
ATLAS CENTAUR R/B 1.4 00:56:56 22° SW 00:59:43 87° NW 01:03:50 10° NE
STARLINK-1241 3.9 00:57:00 10° W 01:01:09 72° N 01:05:18 10° E
SL-16 R/B 2.5 00:56:01 12° SSE 01:01:43 77° WSW 01:07:57 10° NNW
BREEZE-M R/B 3.9 01:01:07 21° SSW 01:02:39 27° SSE 01:05:21 10° E
NOSS 3-4 (A) 3.7 00:57:30 14° WSW 01:02:46 70° NW 01:09:19 10° NE
NOSS 3-4 (C) 3.7 00:57:37 14° WSW 01:02:52 70° NW 01:09:25 10° NE
STARLINK-1238 3.5 00:59:44 10° WNW 01:03:54 76° SSW 01:08:03 10° ESE
Cosmos 1602 Rocket 3.7 01:01:58 18° S 01:05:04 68° E 01:09:22 10° NNE
Cosmos 1455 2.9 01:01:48 10° N 01:05:29 50° ENE 01:09:07 10° SSE
STARLINK-29 3.9 01:04:34 26° S 01:05:33 32° SSE 01:08:28 10° E
STARLINK-1239 3.8 01:01:59 10° W 01:06:08 73° N 01:10:17 10° E
ATLAS 3B R/B 3.2 01:00:26 10° NW 01:06:39 39° WSW 01:12:43 11° S
STARLINK-1201 3.5 01:04:45 10° WNW 01:08:53 73° SSW 01:13:02 10° ESE
CENTAUR R/B 4.2 01:03:43 10° WNW 01:10:04 25° WSW 01:14:47 16° SSW
STARLINK-1240 3.8 01:06:58 10° W 01:11:08 74° N 01:15:17 10° E
GP-B 3.9 01:07:20 10° N 01:11:41 50° E 01:16:00 10° SSE
Meteor 2-1 Rocket 4.1 01:07:15 10° NNW 01:12:46 79° W 01:18:04 11° S
BREEZE-M DEB (TANK) 1.5 01:12:38 26° SW 01:13:37 42° SSE 01:15:52 10° E
STARLINK-1206 3.5 01:09:43 10° WNW 01:13:52 70° SSW 01:17:59 10° ESE
Cosmos-2242 3.8 01:10:53 10° N 01:15:04 50° ENE 01:19:12 10° SSE
STARLINK-1216 3.8 01:11:57 10° W 01:16:07 74° N 01:20:16 10° E
Cosmos 1745 Rocket 4.0 01:12:45 17° SSW 01:17:37 74° WNW 01:23:47 10° N
STARLINK-1205 3.5 01:14:42 10° WNW 01:18:50 67° SSW 01:22:57 10° ESE
STARLINK-1237 3.8 01:16:57 10° WNW 01:21:07 76° N 01:25:16 10° E
Cosmos 2181 Rocket 4.4 01:15:12 10° N 01:21:37 70° ENE 01:28:02 10° SSE
RESURS DK-1 2.4 01:19:17 19° SW 01:22:10 75° WNW 01:26:20 10° NNE
Cosmos 1356 Rocket 4.0 01:19:10 10° NNW 01:23:04 41° W 01:25:49 18° SSW
SL-08 R/B 4.3 01:18:40 10° SE 01:23:10 48° ENE 01:27:38 10° N
Cosmos 2227 Rocket 2.2 01:17:28 10° NNW 01:23:11 85° WSW 01:28:52 10° SSE
STARLINK-1218 3.6 01:19:40 10° WNW 01:23:47 63° SSW 01:27:53 10° SE
CZ-2D R/B 2.1 01:20:34 10° NNE 01:25:53 85° WNW 01:30:15 15° SSW
Meteor 1-24 Rocket 4.4 01:22:03 16° SW 01:26:00 41° WNW 01:31:07 10° N
STARLINK-1202 3.8 01:21:57 10° WNW 01:26:07 77° N 01:30:16 10° E
Cosmos 2369 Rocket 4.2 01:23:32 10° W 01:27:48 21° NW 01:32:04 10° NNE
Cosmos 1763 Rocket 4.5 01:23:46 10° S 01:28:31 40° ESE 01:33:14 10° NE
ADEOS II 2.9 01:23:26 10° NNE 01:28:31 46° E 01:33:33 10° S
STARLINK-1254 3.6 01:24:40 10° WNW 01:28:46 60° SSW 01:32:51 10° SE
Cosmos 1697 Rocket 4.1 01:23:56 10° SSE 01:28:48 30° ESE 01:33:41 10° NE
Cosmos 1703 4.2 01:26:53 10° SSE 01:30:40 45° E 01:34:28 10° NNE
ATLAS 2AS CENTAUR R/B 3.6 01:24:02 10° WSW 01:31:57 58° NW 01:39:41 10° NE
CZ-4C R/B 4.4 01:30:46 17° SSW 01:33:24 32° W 01:37:20 10° NNW
STARLINK-1231 3.6 01:29:40 10° WNW 01:33:45 57° SSW 01:37:49 10° SE
STARLINK-1228 4.3 01:32:37 10° W 01:35:11 21° SW 01:37:45 10° SSE
Resurs 1-4 Rocket 2.2 01:30:21 10° NNE 01:35:38 71° WNW 01:40:11 14° SSW
STARLINK-1246 3.7 01:31:54 10° WNW 01:36:04 80° NNE 01:40:13 10° E
STARLINK-1234 4.2 01:34:04 10° W 01:36:24 19° SW 01:37:03 18° SSW
STARLINK-1212 4.0 01:35:17 10° W 01:37:50 23° SW 01:40:23 10° SSE
STARLINK-1105 4.0 01:35:46 10° W 01:38:18 23° SW 01:40:50 10° SSE
STARLINK-1209 4.4 01:36:23 10° W 01:38:39 18° SW 01:38:42 18° SW
STARLINK-1232 3.7 01:34:39 10° WNW 01:38:43 54° SSW 01:42:46 10° SE
STARLINK-1247 4.0 01:36:40 10° W 01:39:13 23° SW 01:41:47 10° SSE
STARLINK-1227 4.0 01:37:08 10° W 01:39:40 23° SW 01:42:11 10° SSE
STARLINK-1226 4.0 01:38:00 10° W 01:40:31 23° SW 01:43:03 10° SSE
ARIANE 5 R/B 3.8 01:35:53 10° NNE 01:40:36 37° E 01:45:13 10° SSE
USA 81 4.1 01:36:19 13° SSW 01:41:01 72° W 01:46:20 10° N
STARLINK-1224 3.7 01:36:53 10° WNW 01:41:03 82° N 01:45:13 10° E
STARLINK-1215 4.0 01:38:57 10° W 01:41:28 22° SW 01:43:59 10° SSE
STARLINK-52 3.3 01:39:41 17° SW 01:41:54 50° SSE 01:45:01 10° ENE
NPP 3.7 01:37:40 10° NNE 01:43:03 72° WNW 01:47:57 13° SSW
STARLINK-1217 4.1 01:40:44 10° W 01:43:13 22° SW 01:45:42 10° SSE
Cosmos 1758 Rocket 3.6 01:39:23 12° S 01:43:26 81° E 01:47:50 10° NNE
STARLINK-1208 3.7 01:39:37 10° WNW 01:43:39 51° SSW 01:47:41 10° SE
STARLINK-1229 4.1 01:41:40 10° W 01:44:08 21° SW 01:46:37 10° SSE
STARLINK-1270 4.1 01:42:32 10° W 01:44:59 21° SW 01:47:27 10° SSE
H-2A R/B 3.4 01:41:48 10° SE 01:45:53 42° ENE 01:50:05 10° N
STARLINK-1225 3.7 01:41:53 10° WNW 01:46:02 84° N 01:50:12 10° ESE
STARLINK-1189 4.2 01:44:24 10° W 01:46:49 21° SW 01:49:14 10° SSE
STARLINK-1188 4.2 01:45:18 10° W 01:47:42 20° SW 01:50:07 10° SSE
STARLINK-1235 4.4 01:46:12 10° W 01:48:16 17° SW 01:50:21 10° S
Cosmos 1898 Rocket 3.5 01:42:59 10° NNW 01:48:18 67° WSW 01:53:34 10° SSE
STARLINK-1271 3.8 01:44:38 10° WNW 01:48:38 48° SSW 01:52:38 10° SE
STARLINK-1187 4.3 01:46:31 10° W 01:48:44 18° SW 01:50:58 10° S
STARLINK-1191 4.2 01:47:49 10° W 01:50:08 19° SW 01:52:28 10° S
Lacrosse 4 Rocket 2.0 01:45:56 10° NNW 01:50:19 63° NE 01:54:33 10° SE
STARLINK-1221 4.2 01:48:41 10° W 01:51:01 19° SW 01:53:18 10° S
STARLINK-1230 3.7 01:46:51 10° WNW 01:51:01 86° N 01:55:11 10° ESE
Starlink 7 placeholder 1.8 01:49:43 14° W 01:51:18 72° NNW 01:53:18 10° ENE
STARLINK-1222 4.3 01:49:36 10° W 01:51:54 19° SW 01:54:11 10° S
Meteor 1-21 Rocket 4.3 01:46:49 12° SSW 01:52:03 75° WNW 01:57:47 10° N
STARLINK-1214 4.3 01:50:31 10° W 01:52:48 19° SW 01:55:03 10° S
STARLINK-1154 3.9 01:49:37 10° WNW 01:53:36 45° SSW 01:57:33 10° SE
Cosmos 1656 3.8 01:48:20 12° SSW 01:53:41 74° ESE 01:59:19 10° NNE
Cosmos 2285 Rocket 4.1 01:47:20 10° NNW 01:53:47 87° WSW 02:00:08 10° SSE
SJ 16-02 1.6 01:49:31 10° NNW 01:53:47 48° WSW 01:58:03 10° S
IDEFIX/ARIANE 42P 4.4 01:49:20 10° NE 01:53:51 28° E 01:58:19 10° SSE
CZ-4C R/B 3.2 01:51:02 10° S 01:55:38 36° ESE 02:01:01 10° NE
STARLINK-1243 3.6 01:51:50 10° WNW 01:56:00 88° N 02:00:10 10° ESE
Cosmos 2084 3.6 01:52:18 13° SW 01:56:19 89° NW 02:00:49 10° NE
Cosmos 468 Rocket 4.1 01:52:22 11° SSW 01:57:20 78° ESE 02:02:30 10° NNE
STARLINK-1197 3.9 01:54:37 10° WNW 01:58:33 43° SSW 02:02:29 10° SE
Cosmos 1937 Rocket 3.5 01:53:21 10° NNW 01:58:35 74° WSW 02:03:50 10° SSE
Cosmos 1953 Rocket 3.9 01:55:19 10° S 01:59:45 69° E 02:04:12 10° NNE
Meteor 2-10 Rocket 4.0 01:55:23 10° NNW 02:00:30 46° W 02:05:24 10° SSW
Uosat 12 SS-18 rocket 4.4 01:56:20 10° NW 02:00:41 70° NE 02:05:04 10° SE
STARLINK-1236 3.6 01:56:49 10° WNW 02:00:59 89° SSW 02:05:09 10° ESE
COSMOS 2455 3.9 01:55:47 10° WSW 02:01:24 39° NW 02:07:03 10° NNE
Cosmos 2369 4.4 01:56:38 10° S 02:02:01 49° ESE 02:07:27 10° NE
STARLINK-1198 4.0 01:59:35 10° WNW 02:03:29 40° SSW 02:07:22 10° SE
Cosmos 921 Rocket 4.3 02:00:27 10° WSW 02:04:10 29° WNW 02:07:57 10° N
Cosmos 1709 Rocket 4.2 02:01:50 10° SSW 02:07:49 58° WNW 02:13:53 10° N
STARLINK-1199 4.1 02:04:37 10° WNW 02:08:29 38° SSW 02:12:19 10° SE
Iridium 2 4.4 02:06:15 10° N 02:09:57 54° E 02:13:38 10° SSE
STARLINK-1269 3.6 02:06:46 10° WNW 02:10:55 84° SSW 02:15:05 10° ESE
STARLINK-60 3.1 02:09:40 10° W 02:12:52 77° NNW 02:16:06 10° ENE
STARLINK-1210 4.2 02:09:36 10° W 02:13:25 36° SW 02:17:12 10° SSE
Cosmos 2219 4.2 02:10:56 10° NW 02:15:40 28° WSW 02:20:21 10° SSW
STARLINK-1200 3.6 02:11:46 10° WNW 02:15:55 81° SSW 02:20:04 10° ESE
STARLINK-1320 3.7 02:14:52 10° SW 02:17:44 38° SSE 02:20:40 10° E
STARLINK-1322 3.7 02:15:11 10° SW 02:18:04 38° SSE 02:21:01 10° E
STARLINK-1219 4.3 02:14:36 10° W 02:18:22 33° SW 02:22:06 10° SSE
STARLINK-1324 3.7 02:15:32 10° SW 02:18:26 38° SSE 02:21:22 10° E
STARLINK-1294 3.7 02:15:47 10° SW 02:18:43 38° SSE 02:21:40 10° E
STARLINK-1261 3.7 02:16:10 10° SW 02:19:05 39° SSE 02:22:01 10° E
STARLINK-1325 3.6 02:16:30 10° SW 02:19:27 39° SSE 02:22:23 10° E
STARLINK-1333 3.6 02:16:48 10° SW 02:19:44 39° SSE 02:22:41 10° E
STARLINK-1334 3.6 02:17:09 10° SW 02:20:05 39° SSE 02:23:02 10° E
STARLINK-1326 3.6 02:17:30 10° SW 02:20:25 39° SSE 02:23:23 10° E
STARLINK-1323 3.6 02:17:49 10° SW 02:20:46 39° SSE 02:23:43 10° E
STARLINK-1192 3.6 02:16:45 10° WNW 02:20:55 78° SSW 02:25:03 10° ESE
Cosmos 1980 Rocket 3.3 02:15:46 10° S 02:20:58 41° ESE 02:26:13 10° NE
STARLINK-1338 3.9 02:17:44 10° SW 02:21:01 40° SSE 02:24:18 10° E
STARLINK-1349 3.6 02:18:08 10° SW 02:21:05 40° SSE 02:24:03 10° E
STARLINK-1336 3.6 02:18:31 10° SW 02:21:28 40° SSE 02:24:25 10° E
STARLINK-1331 3.6 02:18:49 10° SW 02:21:46 40° SSE 02:24:43 10° E
STARLINK-1344 3.6 02:19:09 10° SW 02:22:06 40° SSE 02:25:04 10° E
STARLINK-1343 3.6 02:19:30 10° SW 02:22:27 40° SSE 02:25:25 10° E
STARLINK-1346 3.6 02:19:49 10° SW 02:22:48 41° SSE 02:25:49 10° E
STARLINK-1328 3.6 02:20:11 10° SW 02:23:08 41° SSE 02:26:07 10° E
CZ-4B R/B 4.2 02:20:51 10° ESE 02:23:13 21° ENE 02:25:35 10° NNE
STARLINK-1211 4.3 02:19:36 10° W 02:23:18 31° SW 02:26:58 10° SSE
STARLINK-1354 3.6 02:20:29 10° SW 02:23:27 41° SSE 02:26:25 10° E
Cosmos 1328 4.1 02:19:44 10° SSW 02:23:39 54° WNW 02:27:35 10° N
STARLINK-1347 3.5 02:20:51 10° SW 02:23:48 41° SSE 02:26:47 10° E
STARLINK-1357 3.5 02:21:09 10° SW 02:24:07 41° SSE 02:27:06 10° E
STARLINK-1335 3.5 02:21:30 10° SW 02:24:28 42° SSE 02:27:27 10° E
STARLINK-1327 3.5 02:21:49 10° SW 02:24:48 42° SSE 02:27:46 10° E
STARLINK-1371 3.8 02:21:42 10° SW 02:25:02 42° SSE 02:28:23 10° ENE
STARLINK-1340 3.5 02:22:11 10° SW 02:25:09 42° SSE 02:28:08 10° E
STARLINK-1356 3.5 02:22:31 10° SW 02:25:29 42° SSE 02:28:28 10° E
ERS-2 2.2 02:21:55 10° S 02:25:32 60° WSW 02:29:11 10° NNW
ERBS 3.0 02:22:24 10° WNW 02:25:43 59° NNE 02:29:02 10° ESE
STARLINK-1345 3.5 02:22:52 10° SW 02:25:50 43° SSE 02:28:49 10° E
STARLINK-1244 3.6 02:21:43 10° WNW 02:25:51 74° SSW 02:30:00 10° ESE
STARLINK-1355 3.5 02:23:10 10° SW 02:26:09 43° SSE 02:29:09 10° E
STARLINK-1321 3.5 02:23:30 10° SW 02:26:29 43° SSE 02:29:28 10° E
IRS-1C 4.2 02:21:27 10° NNE 02:26:49 77° WNW 02:32:08 10° SSW
STARLINK-1358 3.5 02:23:52 10° SW 02:26:51 43° SSE 02:29:50 10° E
STARLINK-1341 3.8 02:23:44 10° SW 02:27:04 44° SSE 02:30:25 10° ENE
STARLINK-1332 3.5 02:24:10 10° SW 02:27:09 43° SSE 02:30:09 10° E
STARLINK-1348 3.5 02:24:32 10° SW 02:27:31 44° SSE 02:30:31 10° E
STARLINK-1330 3.5 02:24:51 10° SW 02:27:50 44° SSE 02:30:50 10° E
STARLINK-1363 3.5 02:25:11 10° SW 02:28:10 44° SSE 02:31:10 10° E
STARLINK-1245 4.4 02:24:38 10° W 02:28:16 29° SW 02:31:52 10° SSE
STARLINK-1337 3.5 02:25:31 10° SW 02:28:30 44° SSE 02:31:31 10° E
STARLINK-1342 3.4 02:25:51 10° SW 02:28:51 44° SSE 02:31:51 10° E
STARLINK-1374 3.8 02:25:45 10° SW 02:29:06 45° SSE 02:32:30 10° ENE
STARLINK-1364 3.4 02:26:12 10° SW 02:29:11 45° SSE 02:32:12 10° E
STARLINK-1376 3.4 02:26:33 10° SW 02:29:33 45° SSE 02:32:33 10° E
CZ-4B R/B 4.4 02:24:58 10° N 02:29:38 36° WNW 02:34:21 10° SW
STARLINK-1360 3.4 02:26:48 10° SW 02:29:48 45° SSE 02:32:49 10° ENE
STARLINK-1138 3.6 02:26:42 10° WNW 02:30:50 71° SSW 02:34:57 10° ESE
Cosmos 2297 Rocket 3.2 02:26:35 10° NW 02:31:11 26° WSW 02:35:46 10° SSW
SL-4 R/B 2.4 02:26:43 10° W 02:31:33 88° S 02:36:09 10° E
